Location: ???????
(54.6339°N, 39.4245°E)
Time: 04:13:11
(UTC+00:00)

Cosmos 1833 Rocket - Pass Details

Date: 19 May 2025
Orbit: 831 x 838 km, 71.0° (Epoch: 19 June)

Event Time Altitude Azimuth Distance (km) Brightness Sun altitude
Rises 20:26:47 0° 246° (WSW) 3,388 5.7 -14.6°
Reaches altitude 10° 20:29:27 10° 256° (WSW) 2,457 5.1 -14.7°
Maximum altitude 20:34:33 34° 321° (NW) 1,364 4.4 -14.8°
Drops below altitude 10° 20:39:40 10° 25° (NNE) 2,466 6.0 -14.9°
Sets 20:42:22 0° 35° (NE) 3,402 6.6 -15.0°
